Flag for Pakistan Weather past 2 weeks in Karachi, Sindh, Pakistan

Now
84 °F

Broken clouds.


Feels Like: 90 °F
Forecast: 80 / 89 °F
Wind: 17 mph from Southwest

Location: Karachi Airport

Current Time: Aug 5, 2015 at 5:34:28 PM

Latest Report: Aug 5, 2015 at 4:55 PM


Visibility: 4 mi

Pressure: 29.53 "Hg

Humidity: 66%

Dew point: 72 °F

Location of KarachiLocation

Historic Weather in Karachi — Graph

°F

Karachi temperature yesterday

Maximum temperature yesterday: 90 °F (at 1:25 PM)
Minimum temperature yesterday: 82 °F (at 12:25 AM)
Average temperature yesterday: 84 °F

Past Weeks' High & Low Weather Summary

 TemperatureHumidityPressure
High95 °F (Jul 22, 2:25 PM)94% (Jul 23, 6:25 PM)29.71 "Hg (Jul 23, 6:25 PM)
Low77 °F (Jul 21, 11:55 PM)22% (Jul 27, 10:30 AM)29.45 "Hg (Jul 26, 5:55 PM)
Average85 °F71%29.58 "Hg
* Reported Jul 21 4:25 PM — Aug 5 4:25 PM, Karachi, Weather by CustomWeather, © 2015

Note: Actual official high and low records may vary slightly from our data, if they occured in-between our weather recording intervals... More about our weather records

Advertising

Karachi weather history for previous 24 hours

 ConditionsComfort  
Time TempWeatherWind HumidityBarometerVisibility
4:25 PM
Wed, Aug 5
86 °FBroken clouds.18 mph62%29.53 "Hg4 mi
3:55 PM86 °FBroken clouds.20 mph59%29.53 "Hg4 mi
3:25 PM86 °FBroken clouds.18 mph59%29.53 "Hg4 mi
2:55 PM86 °FBroken clouds.21 mph59%29.56 "Hg4 mi
2:25 PM86 °FBroken clouds.18 mph59%29.56 "Hg4 mi
1:55 PM86 °FBroken clouds.18 mph62%29.56 "Hg4 mi
1:25 PM84 °FBroken clouds.21 mph62%29.56 "Hg4 mi
12:25 PM86 °FBroken clouds.21 mph59%29.59 "Hg4 mi
11:55 AM84 °FBroken clouds.21 mph62%29.59 "Hg4 mi
11:25 AM84 °FBroken clouds.20 mph62%29.59 "Hg4 mi
10:55 AM84 °FBroken clouds.22 mph66%29.59 "Hg4 mi
10:25 AM84 °FPartly sunny.24 mph66%29.59 "Hg4 mi
9:25 AM84 °FPartly sunny.22 mph66%29.59 "Hg4 mi
8:55 AM84 °FPartly sunny.22 mph66%29.59 "Hg4 mi
8:25 AM82 °FPartly sunny.18 mph70%29.59 "Hg4 mi
8:00 AM82 °FPartly sunny.17 mph70%29.59 "Hg4 mi
7:30 AM81 °FPartly sunny.14 mph74%29.59 "Hg4 mi
7:00 AM81 °FPartly sunny.17 mph74%29.56 "Hg4 mi
6:30 AM81 °FPartly sunny.15 mph70%29.56 "Hg4 mi
6:00 AM81 °FScattered clouds.18 mph74%29.56 "Hg4 mi
4:55 AM81 °FPassing clouds.12 mph70%29.56 "Hg4 mi
3:55 AM81 °FPassing clouds.12 mph70%29.56 "Hg4 mi
3:25 AM81 °FPassing clouds.12 mph70%29.56 "Hg4 mi
2:55 AM82 °FPassing clouds.14 mph66%29.56 "Hg4 mi
2:25 AM82 °FPassing clouds.14 mph70%29.56 "Hg4 mi
1:55 AM82 °FPassing clouds.14 mph66%29.56 "Hg4 mi
1:25 AM82 °FPassing clouds.14 mph70%29.59 "Hg4 mi
12:55 AM82 °FPassing clouds.14 mph70%29.59 "Hg4 mi
12:25 AM82 °FPassing clouds.9 mph70%29.62 "Hg4 mi
12:00 AM82 °FPassing clouds.16 mph70%29.62 "Hg4 mi
11:25 PM
Tue, Aug 4
82 °FPassing clouds.17 mph70%29.62 "Hg4 mi
10:55 PM82 °FPassing clouds.15 mph70%29.62 "Hg4 mi
10:30 PM82 °FPassing clouds.17 mph70%29.62 "Hg4 mi
10:00 PM82 °FPassing clouds.17 mph70%29.62 "Hg4 mi
9:25 PM82 °FPassing clouds.16 mph70%29.62 "Hg4 mi
8:55 PM82 °FPassing clouds.17 mph70%29.62 "Hg4 mi
8:25 PM82 °FPassing clouds.15 mph70%29.62 "Hg4 mi
7:55 PM82 °FPassing clouds.14 mph70%29.62 "Hg4 mi
7:25 PM82 °FPartly cloudy.18 mph70%29.59 "Hg4 mi
6:55 PM84 °FBroken clouds.15 mph66%29.59 "Hg4 mi
6:25 PM84 °FBroken clouds.17 mph66%29.59 "Hg4 mi
5:55 PM84 °FBroken clouds.15 mph66%29.59 "Hg4 mi
5:25 PM86 °FBroken clouds.15 mph59%29.59 "Hg4 mi
Weather by CustomWeather, © 2015

See weather overviewHow to use our weather pages